TimeCST,TemperatureF,Dew PointF,Humidity,Sea Level PressureIn,VisibilityMPH,Wind Direction,Wind SpeedMPH,Gust SpeedMPH,PrecipitationIn,Events,Conditions,WindDirDegrees,DateUTC
12:15 AM,32.2,23.0,69,30.30,10.0,SSE,10.4,-,N/A,,Clear,160,2013-11-30 06:15:00
12:35 AM,32.0,23.4,70,30.28,10.0,SSE,10.4,-,N/A,,Clear,160,2013-11-30 06:35:00
12:55 AM,32.0,23.4,70,30.28,10.0,South,10.4,-,N/A,,Clear,170,2013-11-30 06:55:00
1:15 AM,31.1,23.0,72,30.28,10.0,SSE,8.1,-,N/A,,Clear,160,2013-11-30 07:15:00
1:35 AM,30.0,23.0,75,30.27,10.0,SSE,6.9,-,N/A,,Clear,160,2013-11-30 07:35:00
1:55 AM,30.0,23.0,75,30.26,10.0,SSE,8.1,-,N/A,,Clear,160,2013-11-30 07:55:00
2:15 AM,29.8,23.0,76,30.26,10.0,SSE,6.9,-,N/A,,Clear,160,2013-11-30 08:15:00
2:35 AM,29.5,23.4,78,30.25,10.0,SSE,8.1,-,N/A,,Clear,160,2013-11-30 08:35:00
2:55 AM,30.6,24.1,77,30.25,10.0,SSE,8.1,-,N/A,,Clear,160,2013-11-30 08:55:00
3:15 AM,31.1,24.4,76,30.24,10.0,SSE,9.2,-,N/A,,Clear,160,2013-11-30 09:15:00
3:35 AM,31.1,24.6,77,30.23,10.0,South,9.2,-,N/A,,Clear,170,2013-11-30 09:35:00
3:55 AM,31.1,24.8,77,30.23,10.0,South,9.2,-,N/A,,Clear,170,2013-11-30 09:55:00
4:15 AM,32.0,25.3,76,30.22,10.0,South,8.1,-,N/A,,Clear,170,2013-11-30 10:15:00
4:35 AM,32.0,25.3,76,30.22,10.0,South,10.4,-,N/A,,Clear,180,2013-11-30 10:35:00
4:55 AM,32.0,25.5,77,30.22,10.0,South,10.4,-,N/A,,Clear,180,2013-11-30 10:55:00
5:15 AM,31.6,25.3,78,30.22,10.0,South,9.2,-,N/A,,Clear,180,2013-11-30 11:15:00
5:35 AM,31.6,25.5,78,30.21,10.0,South,10.4,-,N/A,,Clear,180,2013-11-30 11:35:00
5:55 AM,31.8,25.7,78,30.20,10.0,South,10.4,-,N/A,,Clear,180,2013-11-30 11:55:00
6:15 AM,32.0,26.1,79,30.20,10.0,South,11.5,-,N/A,,Clear,180,2013-11-30 12:15:00
6:35 AM,31.6,25.7,79,30.20,10.0,South,12.7,-,N/A,,Clear,180,2013-11-30 12:35:00
6:55 AM,32.0,26.2,79,30.19,10.0,South,11.5,-,N/A,,Clear,190,2013-11-30 12:55:00
7:15 AM,31.8,26.2,80,30.19,10.0,South,10.4,-,N/A,,Clear,190,2013-11-30 13:15:00
7:35 AM,32.0,26.6,80,30.19,10.0,South,11.5,-,N/A,,Clear,180,2013-11-30 13:35:00
7:55 AM,32.7,27.3,81,30.18,10.0,South,10.4,-,N/A,,Clear,180,2013-11-30 13:55:00
8:15 AM,34.3,27.7,77,30.18,10.0,South,12.7,-,N/A,,Clear,190,2013-11-30 14:15:00
8:35 AM,35.8,28.2,74,30.18,10.0,South,13.8,-,N/A,,Clear,180,2013-11-30 14:35:00
8:55 AM,37.0,28.4,71,30.18,10.0,SSW,12.7,-,N/A,,Clear,200,2013-11-30 14:55:00
9:15 AM,38.5,28.8,68,30.17,10.0,South,15.0,-,N/A,,Clear,190,2013-11-30 15:15:00
9:35 AM,40.1,28.9,64,30.17,10.0,South,15.0,-,N/A,,Clear,190,2013-11-30 15:35:00
9:55 AM,41.7,29.1,61,30.17,10.0,SW,12.7,21.9,N/A,,Clear,220,2013-11-30 15:55:00
10:15 AM,42.8,28.8,58,30.17,10.0,SSW,13.8,21.9,N/A,,Clear,210,2013-11-30 16:15:00
10:35 AM,43.9,28.9,56,30.17,10.0,SSW,11.5,-,N/A,,Clear,210,2013-11-30 16:35:00
10:55 AM,45.3,29.1,53,30.16,10.0,SW,10.4,-,N/A,,Clear,220,2013-11-30 16:55:00
11:15 AM,46.8,29.3,51,30.14,10.0,SW,10.4,-,N/A,,Clear,220,2013-11-30 17:15:00
11:35 AM,47.7,29.5,49,30.13,10.0,SSW,11.5,-,N/A,,Clear,210,2013-11-30 17:35:00
11:55 AM,48.9,29.1,46,30.12,10.0,SSW,11.5,-,N/A,,Clear,210,2013-11-30 17:55:00
12:15 PM,48.9,29.1,46,30.11,10.0,SSW,8.1,-,N/A,,Clear,210,2013-11-30 18:15:00
12:35 PM,49.8,29.3,45,30.10,10.0,SSW,9.2,-,N/A,,Clear,200,2013-11-30 18:35:00
12:55 PM,50.9,29.3,43,30.09,10.0,SSW,10.4,-,N/A,,Clear,210,2013-11-30 18:55:00
1:15 PM,51.4,29.3,43,30.08,10.0,SSW,12.7,-,N/A,,Clear,200,2013-11-30 19:15:00
1:35 PM,51.6,29.5,43,30.08,10.0,SW,11.5,-,N/A,,Clear,230,2013-11-30 19:35:00
1:55 PM,52.0,29.7,42,30.07,10.0,SW,12.7,-,N/A,,Clear,230,2013-11-30 19:55:00
2:15 PM,52.3,29.8,42,30.06,10.0,SSW,10.4,-,N/A,,Clear,200,2013-11-30 20:15:00
2:35 PM,52.7,29.7,41,30.05,10.0,South,10.4,-,N/A,,Clear,190,2013-11-30 20:35:00
2:55 PM,52.3,30.0,42,30.05,10.0,South,10.4,-,N/A,,Clear,190,2013-11-30 20:55:00
3:15 PM,52.2,30.2,43,30.05,10.0,SSW,10.4,-,N/A,,Clear,200,2013-11-30 21:15:00
3:35 PM,51.8,30.2,44,30.06,10.0,SSW,10.4,-,N/A,,Clear,210,2013-11-30 21:35:00
3:55 PM,50.4,30.4,46,30.06,10.0,SSW,8.1,-,N/A,,Clear,210,2013-11-30 21:55:00
4:15 PM,48.0,30.2,50,30.07,10.0,SW,6.9,-,N/A,,Clear,220,2013-11-30 22:15:00
4:35 PM,46.0,29.8,53,30.07,10.0,SW,6.9,-,N/A,,Clear,220,2013-11-30 22:35:00
4:55 PM,44.4,29.3,55,30.07,10.0,SW,5.8,-,N/A,,Clear,220,2013-11-30 22:55:00
5:15 PM,42.3,29.3,60,30.08,10.0,SW,5.8,-,N/A,,Clear,220,2013-11-30 23:15:00
5:35 PM,41.9,29.5,61,30.09,10.0,SW,3.5,-,N/A,,Clear,230,2013-11-30 23:35:00
5:55 PM,42.6,30.0,61,30.09,10.0,SW,3.5,-,N/A,,Clear,230,2013-11-30 23:55:00
6:15 PM,41.0,29.8,64,30.09,10.0,SSW,4.6,-,N/A,,Clear,210,2013-12-01 00:15:00
6:35 PM,40.3,29.7,66,30.09,10.0,SSW,4.6,-,N/A,,Clear,210,2013-12-01 00:35:00
6:55 PM,40.5,29.8,66,30.09,10.0,SW,4.6,-,N/A,,Clear,220,2013-12-01 00:55:00
7:15 PM,40.3,30.2,67,30.09,10.0,SW,4.6,-,N/A,,Clear,230,2013-12-01 01:15:00
7:35 PM,39.4,29.8,69,30.09,10.0,SW,4.6,-,N/A,,Clear,220,2013-12-01 01:35:00
7:55 PM,38.8,29.8,70,30.09,10.0,SW,4.6,-,N/A,,Clear,230,2013-12-01 01:55:00
8:15 PM,38.7,30.2,72,30.09,10.0,WSW,4.6,-,N/A,,Clear,240,2013-12-01 02:15:00
8:35 PM,37.6,30.0,74,30.09,10.0,SW,4.6,-,N/A,,Clear,230,2013-12-01 02:35:00
8:55 PM,36.5,29.5,76,30.09,10.0,SW,3.5,-,N/A,,Clear,230,2013-12-01 02:55:00
9:15 PM,37.0,29.8,75,30.09,10.0,SW,3.5,-,N/A,,Clear,230,2013-12-01 03:15:00
9:35 PM,35.2,29.1,78,30.10,10.0,SW,4.6,-,N/A,,Clear,220,2013-12-01 03:35:00
9:55 PM,34.0,28.8,81,30.10,10.0,WSW,5.8,-,N/A,,Clear,240,2013-12-01 03:55:00
10:15 PM,34.9,29.3,80,30.10,10.0,WSW,4.6,-,N/A,,Clear,250,2013-12-01 04:15:00
10:35 PM,35.1,29.1,79,30.10,10.0,West,5.8,-,N/A,,Clear,260,2013-12-01 04:35:00
10:55 PM,34.2,29.1,82,30.10,10.0,WNW,3.5,-,N/A,,Clear,300,2013-12-01 04:55:00
11:15 PM,34.2,28.9,81,30.10,10.0,NNW,3.5,-,N/A,,Clear,330,2013-12-01 05:15:00
11:35 PM,35.1,28.2,76,30.10,10.0,West,3.5,-,N/A,,Clear,280,2013-12-01 05:35:00
11:55 PM,31.5,27.3,85,30.10,10.0,West,4.6,-,N/A,,Clear,280,2013-12-01 05:55:00